sat.trackr.live / text

‹ back to catalog

STARLINK-37148

NORAD 68310 · 2026-057S

PAYLOAD ACTIVE UNKNOWN

§ Identity

Operator
Country
US
Launch date
2026-03-20
Launch site
AFWTR
Launch vehicle
Mass (kg)
RCS (m²)

Purposes: comms

External: N2YO · Heavens-Above · Gunter

§ Orbital elements

Epoch: 2026-09-19T07:10:36.602400Z

Period
93.90 min
Inclination
97.2832°
Eccentricity
0.0002110
Mean motion
15.33471947 rev/d
Perigee alt
464.0 km
Apogee alt
466.9 km
Semi-major
6,843.6 km
B*
6.9339e-4
RAAN
27.7769°
Arg perigee
91.8368°
Mean anomaly
268.3116°
Rev number
2,833

§ Raw data

STARLINK-371481 68310U 26057S   26262.29903475  .00022397  00000+0  69339-3 0  99902 68310  97.2832  27.7769 0002110  91.8368 268.3116 15.33471947 28335

JSON: /api/v1/satellites/68310 · /tle

For live sub-satellite position, see the globe view (requires WebGL).

§ Visibility from observer

Set your observer location to see the next 7 days of passes ≥ 10°. The values pass through the URL so the page stays shareable.

No JS? Fill the form by hand. The geolocation button needs JavaScript.